Location: Sungai Bunut
(2.6333°N, 113.7333°E)
Time: 10:24:16
(UTC+00:00)

Transit 2A Rocket - Pass Details

Date: 10 December 2023
Orbit: 590 x 905 km, 66.7° (Epoch: 01 March)

Event Time Altitude Azimuth Distance (km) Brightness Sun altitude
Rises 11:12:18 0° 212° (SSW) 3,318 9.3 -13.6°
Reaches altitude 10° 11:14:56 10° 219° (SW) 2,334 8.5 -14.2°
Maximum altitude 11:19:56 42° 289° (WNW) 1,041 6.1 -15.3°
Drops below altitude 10° 11:24:31 10° 360° (N) 2,129 7.1 -16.4°
Enters shadow 11:25:45 - 4° (N) 2,583 7.5 -16.7°
Sets 11:26:50 0° 7° (N) 2,994 - -16.9°
